Find Starlink 36267

NORAD ID: 67198 Int'l Des: 2025-304 Owner: SPXS Country: US Constellation: starlink operational
LEOCIRCULAR

現在のビュー

3D地球を読み込み中...

About Starlink 36267

Starlink 36267 (NORAD 67198) is a starlink constellation satellite (v2 mini) launched Dec 17, 2025 by SPXS of US. It operates in LEO, CIRCULAR orbit with a mass of 575.00 kg.

Starlink 36267について

説明を読み込み中...

次回通過

Passes for default location (London). Set your location on the main map for personalized predictions.

高度履歴

Loading altitude history...

軌道要素

1 67198U 25304G 26194.46750236 .00002282 00000-0 19889-3 0 9992
2 67198 69.9994 217.3788 0003871 266.6019 93.4697 14.98340247 32694
Epoch: Jul 13, 2026 • Age: 17 hours

現在のステータス

高度 576.3 km
遠地点 / 近地点 N/A
速度 7.57 km/s
衛星直下点 -13.49°S, 46.95°E
打ち上げ日 Dec 17, 2025
運用期間 0.5 years
タイプ internet

技術仕様

分類 Payload
質量 575.00 kg
乾燥質量 530.00 kg
総質量 575.00 kg
長さ 0.30 m
直径 4.10 m
スパン 29.00 m
形状 Box + pan
製造者 SPXS
バスタイプ Starlink V2MO
フェーズステータス In Orbit
所有者/国 SPXS/US

Most Searched